Location: Downe
(51.3167°N, 0.0500°E)
Time: 19:48:58
(UTC+00:00)

SL-27 R/B - Pass Details

Date: 17 November 2019
Orbit: 420 x 472 km, 74.7° (Epoch: 07 December)

Event Time Altitude Azimuth Distance (km) Brightness Sun altitude
Exits shadow 06:20:16 12° 309° (NW) 1,400 4.3 -9.3°
Maximum altitude 06:20:26 12° 312° (NW) 1,399 4.3 -9.3°
Drops below altitude 10° 06:21:49 10° 336° (NNW) 1,523 4.7 -9.1°
Sets 06:24:59 0° 9° (N) 2,402 6.0 -8.6°
